Wind_Speed
44 44 43 44 44 43 44 44 44 43 43 43 44 44 44 45 45 46 47 47 47 47 48 48 48 48 48 47 46 45 45 45 46 47 47 47 46 45
45 45 44 45 45 45 45 45 45 45 45 44 45 45 45 45 46 47 47 47 48 49 49 49 49 48 47 47 46 45 45 47 47 47 47 47 46 45
46 46 47 46 46 46 46 45 46 47 47 46 47 47 47 46 46 46 46 47 48 49 50 49 48 48 48 47 47 47 47 47 47 47 47 46 44 43
47 47 47 46 46 46 47 46 47 47 48 48 49 49 47 47 47 47 48 48 48 49 49 49 48 48 48 47 47 48 48 48 48 48 47 46 45 44
47 46 46 47 48 47 47 47 47 47 48 49 49 48 48 48 49 49 49 49 49 49 48 48 48 48 48 48 47 48 48 49 49 48 47 47 47 46
47 47 47 49 49 48 48 48 48 48 48 48 47 47 48 48 49 49 49 49 49 49 48 48 49 49 49 48 48 49 49 49 49 49 48 47 47 46
48 47 47 47 47 48 48 48 48 48 48 47 46 46 46 47 47 48 48 48 47 48 48 48 49 49 49 49 49 49 49 50 50 49 48 47 46 45
46 46 46 46 46 47 47 47 47 46 46 45 45 45 46 46 46 46 46 46 47 47 48 49 49 49 49 49 49 49 49 49 49 48 47 46 44 44
44 44 45 45 45 45 45 46 46 46 45 45 45 46 45 45 44 44 44 45 46 46 47 48 48 48 48 48 48 48 48 48 47 46 45 44 44 43
44 44 43 43 44 44 44 44 45 45 45 45 45 45 44 43 43 44 44 45 45 46 47 47 46 46 47 48 47 47 47 46 45 45 45 44 43 43
41 41 41 43 43 44 44 44 44 44 45 44 44 44 44 43 44 45 45 46 46 45 46 45 45 45 45 46 46 46 46 45 45 44 44 43 43 43
39 41 42 43 43 43 43 42 43 43 43 44 44 44 44 44 45 45 46 45 45 45 44 44 44 44 44 45 45 45 44 44 44 43 42 42 42 41
38 40 41 41 41 41 42 42 42 42 42 43 43 43 44 44 44 44 44 44 44 43 43 44 44 44 44 43 43 43 42 42 42 42 41 41 41 41
38 38 39 39 39 39 40 41 41 41 42 41 41 42 43 43 43 42 43 44 44 44 43 43 43 43 43 42 40 40 40 40 40 40 40 39 39 39
37 37 37 37 38 39 40 40 41 42 42 42 41 41 42 42 42 42 43 42 42 42 41 41 42 42 41 40 38 38 37 37 37 38 38 38 38 38
38 37 37 37 38 38 39 40 41 41 41 41 40 39 40 41 41 41 40 40 40 40 40 41 41 40 38 37 37 36 36 36 37 37 36 36 36 35
36 37 38 38 38 38 39 40 40 40 40 40 40 39 39 39 40 40 40 40 40 40 40 40 39 38 37 36 36 35 35 36 36 35 34 34 33 32
37 37 37 38 38 38 39 39 39 39 39 39 39 39 39 39 40 40 40 40 40 40 40 38 37 36 36 35 34 34 34 34 34 33 32 32 31 30
36 37 37 37 37 38 38 37 37 38 38 38 38 38 39 39 39 39 39 39 39 38 37 37 36 35 34 33 33 33 32 32 31 31 31 30 29 29
35 36 37 37 37 37 37 38 38 38 38 38 38 38 38 38 39 39 38 38 37 36 36 35 34 34 33 32 31 32 31 30 29 29 29 28 28 27
34 35 36 36 36 36 37 37 37 37 37 37 37 37 38 38 37 37 37 36 36 35 34 34 34 33 32 31 31 31 30 29 29 28 28 27 27 26
34 34 34 35 35 36 36 36 37 36 36 36 36 36 36 36 36 35 35 34 34 33 33 33 32 32 31 31 30 30 29 29 29 29 28 27 26 25
33 34 34 34 35 35 35 35 35 35 35 35 35 35 35 35 35 35 34 33 33 32 32 31 31 30 30 30 30 29 29 28 27 27 26 25 24 24
Wind_Direction
265 265 267 269 271 272 273 274 275 275 276 278 279 281 282 282 282 283 284 285 287 288 289 290 290 291 290 290 289 289 289 290 291 292 293 293 294 294
264 265 266 268 270 271 272 273 274 275 276 277 278 280 282 282 282 283 283 284 286 287 289 289 290 289 289 289 288 288 289 290 291 292 293 293 293 293
266 266 267 268 269 271 273 274 275 276 276 277 278 280 281 282 282 282 284 285 286 287 289 289 289 289 288 288 287 287 288 289 290 291 293 293 293 292
267 267 268 269 270 272 273 275 276 277 277 278 278 279 280 281 281 282 283 285 286 288 288 288 289 289 288 288 288 287 287 288 289 290 291 291 290 290
266 267 269 270 270 272 273 275 276 277 278 279 279 279 280 281 281 283 284 284 285 286 287 288 288 288 288 288 288 288 288 288 288 290 290 290 289 290
265 266 268 270 270 271 272 274 276 278 279 280 279 280 280 281 282 283 284 285 286 286 287 288 289 288 288 288 288 289 289 289 289 290 290 289 289 289
265 267 268 269 270 271 272 275 277 278 278 279 279 280 280 282 283 284 284 285 286 287 288 288 289 288 288 288 289 289 289 290 290 291 291 290 289 289
265 267 267 270 271 273 274 276 278 278 278 279 279 280 281 282 283 284 284 285 286 287 288 289 289 289 289 289 289 289 289 289 289 290 290 289 288 288
266 267 268 269 272 273 275 277 277 277 277 278 279 281 282 283 283 284 285 286 288 289 289 290 290 290 290 290 290 290 291 290 289 289 288 288 288 288
267 268 269 271 273 274 276 278 278 278 278 279 281 282 283 282 283 284 286 286 288 289 289 289 290 290 291 291 292 291 292 291 290 290 288 288 288 288
269 270 271 272 273 276 277 277 278 277 278 278 280 281 282 282 284 284 285 286 288 289 289 290 290 291 292 292 292 292 292 291 291 290 289 288 288 287
270 271 273 275 276 276 277 277 277 278 278 278 280 281 281 281 283 285 286 287 287 289 289 290 291 292 292 292 292 293 292 291 291 291 290 289 288 287
271 272 273 275 276 276 276 277 279 278 279 280 280 281 282 283 284 285 286 287 288 289 289 290 291 292 292 293 293 293 292 292 291 291 291 291 290 289
270 273 274 274 274 275 275 276 278 279 280 281 280 281 282 284 285 285 285 287 288 289 290 290 291 292 293 293 293 293 294 294 293 293 292 293 292 291
270 272 273 273 274 276 276 277 277 278 279 281 281 282 283 283 284 284 286 286 288 289 290 290 291 294 294 294 293 294 294 294 294 294 294 293 293 291
271 273 274 276 277 278 278 278 278 280 281 281 283 283 282 283 283 285 286 286 287 289 290 292 293 294 294 293 294 295 294 294 295 295 295 295 294 292
273 275 276 277 278 278 279 280 280 281 282 282 283 283 283 284 285 286 286 286 287 289 290 291 292 293 293 294 295 295 295 296 296 297 296 296 295 293
275 276 277 277 278 278 278 279 280 280 281 282 283 283 284 284 285 286 286 287 287 289 290 290 290 292 293 294 295 296 297 297 297 297 296 297 295 294
274 276 278 279 278 278 278 279 280 280 280 281 282 283 285 285 285 285 286 286 287 289 289 289 289 291 292 293 293 295 296 297 298 298 298 297 296 296
274 276 278 279 279 279 278 279 280 280 280 281 282 283 284 285 285 285 286 286 287 287 287 288 289 290 290 291 292 294 295 297 297 298 298 297 296 296
274 276 278 279 279 278 278 279 280 279 280 280 282 283 284 285 285 284 284 285 286 286 286 287 288 288 288 290 291 293 294 296 296 297 297 297 296 296
275 277 278 279 279 279 279 279 279 279 280 281 282 284 284 285 284 285 285 284 285 285 285 286 286 287 287 289 290 291 293 295 296 298 298 297 296 297
276 277 278 278 278 278 279 279 278 279 280 281 282 283 284 284 285 285 285 284 284 285 285 285 285 286 287 288 289 291 292 294 297 298 298 298 298 300
Height
5721 5722 5722 5722 5722 5722 5721 5721 5720 5720 5721 5719 5717 5715 5713 5711 5709 5706 5703 5701 5698 5695 5692 5689 5686 5682 5679 5675 5672 5669 5665 5662 5659 5656 5652 5648 5644 5640
5710 5710 5711 5711 5711 5710 5710 5709 5708 5708 5708 5708 5705 5704 5701 5698 5696 5693 5691 5688 5685 5682 5679 5676 5673 5669 5666 5663 5660 5657 5653 5650 5647 5643 5639 5635 5632 5628
5698 5698 5699 5699 5699 5699 5698 5697 5696 5695 5694 5694 5692 5690 5688 5685 5683 5680 5677 5675 5672 5669 5666 5663 5660 5656 5653 5650 5647 5644 5641 5637 5634 5630 5626 5623 5619 5616
5686 5687 5687 5687 5687 5687 5686 5685 5684 5682 5681 5680 5679 5677 5675 5672 5669 5667 5664 5662 5659 5656 5653 5650 5646 5643 5640 5637 5634 5631 5628 5624 5621 5617 5614 5611 5607 5603
5674 5675 5675 5675 5675 5675 5674 5673 5672 5670 5668 5667 5666 5664 5662 5659 5657 5654 5651 5649 5646 5643 5640 5637 5633 5630 5627 5624 5620 5617 5614 5611 5608 5604 5601 5597 5594 5590
5662 5662 5663 5663 5663 5662 5661 5660 5659 5658 5656 5654 5652 5651 5649 5647 5644 5642 5639 5636 5633 5630 5627 5624 5620 5617 5614 5611 5608 5605 5601 5597 5594 5591 5587 5584 5581 5578
5649 5650 5650 5650 5650 5649 5648 5647 5646 5645 5643 5641 5640 5638 5636 5634 5631 5629 5626 5624 5621 5617 5614 5611 5608 5605 5601 5597 5594 5591 5587 5584 5581 5577 5574 5571 5568 5565
5636 5637 5638 5638 5637 5637 5636 5635 5633 5632 5630 5629 5627 5625 5623 5621 5619 5616 5613 5611 5609 5606 5602 5599 5595 5592 5588 5585 5581 5578 5574 5571 5567 5564 5561 5558 5555 5552
5624 5624 5625 5625 5625 5624 5623 5622 5621 5619 5618 5617 5615 5613 5611 5609 5607 5604 5601 5598 5596 5592 5589 5586 5583 5579 5575 5571 5568 5564 5561 5557 5554 5551 5547 5544 5542 5539
5612 5613 5613 5613 5613 5613 5612 5610 5609 5607 5606 5605 5603 5601 5598 5596 5594 5592 5589 5587 5584 5580 5576 5574 5571 5567 5563 5559 5555 5551 5548 5544 5541 5537 5534 5531 5529 5526
5601 5601 5601 5601 5602 5601 5600 5599 5597 5596 5594 5592 5591 5589 5586 5584 5582 5580 5577 5574 5572 5569 5565 5562 5559 5555 5551 5546 5543 5539 5535 5532 5528 5525 5521 5519 5516 5514
5590 5590 5590 5589 5589 5588 5587 5586 5586 5584 5583 5581 5579 5577 5575 5572 5570 5567 5565 5562 5559 5557 5553 5550 5546 5542 5540 5535 5531 5527 5523 5519 5516 5512 5509 5506 5503 5501
5578 5578 5578 5578 5577 5576 5575 5575 5574 5572 5571 5569 5567 5565 5563 5561 5558 5555 5552 5550 5547 5544 5541 5538 5535 5530 5527 5524 5519 5515 5511 5508 5504 5500 5497 5494 5491 5489
5567 5567 5567 5566 5566 5564 5564 5563 5562 5560 5559 5557 5555 5554 5551 5549 5546 5544 5541 5538 5535 5532 5529 5526 5523 5519 5515 5512 5508 5504 5500 5496 5493 5489 5486 5483 5480 5477
5556 5556 5556 5555 5554 5553 5553 5551 5550 5548 5547 5545 5544 5542 5539 5537 5535 5532 5529 5526 5523 5520 5517 5514 5511 5508 5504 5501 5497 5494 5490 5486 5482 5479 5475 5472 5469 5466
5545 5545 5544 5544 5543 5542 5541 5539 5538 5536 5535 5534 5532 5530 5527 5525 5523 5520 5518 5515 5512 5509 5506 5503 5499 5496 5493 5490 5486 5483 5479 5476 5473 5469 5466 5462 5459 5456
5535 5534 5534 5533 5532 5531 5529 5528 5526 5524 5523 5522 5520 5518 5516 5514 5511 5509 5506 5503 5501 5498 5495 5492 5488 5485 5482 5479 5476 5473 5469 5466 5463 5459 5456 5453 5450 5446
5524 5524 5523 5522 5520 5519 5518 5517 5515 5513 5512 5510 5508 5506 5504 5502 5500 5497 5495 5492 5489 5487 5484 5481 5478 5475 5473 5469 5467 5463 5460 5457 5454 5450 5447 5444 5441 5438
5514 5513 5512 5510 5509 5508 5507 5505 5504 5502 5500 5499 5497 5495 5493 5490 5488 5486 5483 5481 5478 5476 5473 5470 5467 5465 5463 5461 5458 5454 5452 5448 5445 5442 5439 5436 5433 5430
5503 5502 5501 5500 5498 5497 5495 5494 5492 5491 5489 5488 5486 5483 5481 5479 5477 5474 5472 5470 5467 5465 5463 5460 5458 5456 5454 5452 5449 5446 5443 5440 5437 5434 5431 5428 5426 5423
5492 5491 5490 5489 5487 5486 5484 5483 5481 5479 5478 5476 5474 5472 5470 5468 5465 5463 5461 5459 5457 5455 5453 5451 5448 5446 5444 5442 5440 5437 5434 5432 5429 5427 5424 5421 5419 5416
5482 5481 5479 5478 5477 5475 5473 5472 5470 5468 5467 5465 5463 5461 5459 5457 5455 5453 5451 5449 5447 5445 5443 5441 5439 5437 5435 5433 5431 5429 5426 5423 5420 5418 5415 5413 5410 5408
5472 5470 5469 5467 5466 5464 5463 5461 5459 5458 5456 5454 5452 5450 5448 5446 5444 5442 5440 5438 5437 5435 5433 5431 5429 5427 5425 5424 5422 5420 5418 5415 5413 5410 5408 5405 5402 5400